Terminal Aerodrome Forecast
Issued by NWS

Home | Current Version | Previous Version | Text Only | Print | Product List | Glossary On
Versions: 1 2 3 4 5 6 7 8 9 10 11 12 13 14 15 16 17 18 19 20 21 22 23 24 25 26 27 28 29 30 31 32 33 34 35 36 37 38 39 40 41 42 43 44 45 46 47 48 49 50
000
FTUS43 KMKX 211432 AAC
TAFUES
TAF AMD
KUES 211432Z 2115/2212 16006KT 4SM -SN BR OVC025
      TEMPO 2115/2116 2SM -SHSN OVC018
     FM211700 18009KT 6SM BR OVC008
     FM212000 17010G17KT P6SM OVC015=

USA.gov is the U.S. government's official web portal to all federal, state and local government web resources and services.